Miscellaneous Local Product
Issued by NWS North Platte, NE

Home | Current Version | Previous Version | Text Only | Print | Product List | Glossary On
Versions: 1 2 3 4 5 6 7 8 9 10 11 12 13 14 15 16 17 18 19 20 21 22 23 24 25 26 27 28 29 30 31 32 33 34 35 36 37 38 39 40 41 42 43 44 45 46 47 48 49 50
404
AXUS43 KLBF 232110
MISLBF


WESTERN AND NORTH CENTRAL NEBRASKA HOURLY WEATHER ROUNDUP
NATIONAL WEATHER SERVICE NORTH PLATTE NE
400 PM CDT WED MAY 23 2018

NOTE: "FAIR" INDICATES FEW OR NO CLOUDS BELOW 12,000 FEET WITH NO
SIGNIFICANT WEATHER AND/OR OBSTRUCTIONS TO VISIBILITY.

NOTE: STATIONS NOT REPORTING VARIABLES SUCH AS SKY/WEATHER OR
PRESSURE ARE PROVIDED BY RAWS AND APRS NETWORKS AND ARE NOT UNDER
NATIONAL WEATHER SERVICE QUALITY CONTROL.

...OBSERVATIONS IN AND NEAR THE EASTERN PANHANDLE OF NEBRASKA...

CITY           SKY/WX    TMP DP  RH WIND       PRES   REMARKS
PINE RIDGE     SUNNY     77  55  46 E8        29.92S
GORDON         FAIR      78  59  50 N5        29.91F
CHADRON        SUNNY     78  57  48 E6        29.90S
ALLIANCE       SUNNY     78  58  49 SE9       29.92F
SIDNEY         MOSUNNY   81  55  40 S10       29.95F
CRESCENT LAKE    N/A     81  56  42 SE9         N/A
$$

...OBSERVATIONS IN NORTHERN NEBRASKA AND FAR SOUTHERN SOUTH DAKOTA...

CITY           SKY/WX    TMP DP  RH WIND       PRES   REMARKS
WINNER         FAIR      84  60  44 S14       29.88F
VALENTINE      CLOUDY    84  57  39 S20G30    29.90F
AINSWORTH      PTSUNNY   82  60  46 S18G25    29.92F
O`NEILL        MOSUNNY   84  63  48 S12       29.95S
THEDFORD       PTSUNNY   83  56  38 S24       29.95F
BROKEN BOW     PTSUNNY   84  63  49 S16       29.95F
ORD            PTSUNNY   83  65  54 SE8       29.91F
ALBION         PTSUNNY   87  60  40 S16G23    29.94F
VALENTINE NWR    N/A     81  56  42 S16         N/A
HALSEY           N/A     83  58  42 S13G23      N/A
BUTTE            N/A     84  62  46 S15G26      N/A
CHAMBERS         N/A     87  66  49 S7          N/A
EWING            N/A     84  69  60 S8          N/A
$$

...OBSERVATIONS IN SOUTHWEST NEBRASKA AND FAR NORTHEAST COLORADO...

CITY           SKY/WX    TMP DP  RH WIND       PRES   REMARKS
WRAY           FAIR      84  50  30 S12       29.92F
HOLYOKE        FAIR      86  50  28 S18       29.92F
IMPERIAL       PTSUNNY   88  52  29 S20G29    29.92F
OGALLALA       PTSUNNY   84  55  37 S20       29.91F
NORTH PLATTE   PTSUNNY   84  62  47 S13G22    29.94F
MCCOOK         MOSUNNY   85  57  38 S14G28    29.93F
LEXINGTON      PTSUNNY   85  61  44 S22       29.94F
STAPLETON        N/A     82  61  49 S3G12       N/A
GOTHENBURG       N/A     82  56  41 SE10        N/A
CALLAWAY         N/A     82  63  52 S23         N/A
$$

...OBSERVATIONS IN CENTRAL LINCOLN COUNTY AREA...

CITY           SKY/WX    TMP DP  RH WIND       PRES   REMARKS
N.P. AIRPORT   PTSUNNY   84  62  47 S13G22    29.94F
N.P. DOWNTOWN    N/A     85  58  40 SE3         N/A
N.P. SOUTHEAST   N/A     83  59  43 S9G18       N/A
$$

...OBSERVATIONS ACROSS THE ROCKIES AND WESTERN HIGH PLAINS...

CITY           SKY/WX    TMP DP  RH WIND       PRES   REMARKS
RAPID CITY     MOSUNNY   76  59  55 SE14      29.88F
SCOTTSBLUFF    SUNNY     79  56  45 SE14      29.93S
CHEYENNE       MOSUNNY   69  48  47 S12       30.04S
DENVER         PTSUNNY   78  46  32 NE12      29.97F
BERTHOUD PASS  PTSUNNY   43  32  65 SW10G28   30.41S
COPPER MTN     PTSUNNY   54  19  26 S10G17    30.38S
MONARCH PASS   CLOUDY    48  12  23 MISG      30.48S
ASPEN          MOSUNNY   71  21  15 SW5G26    30.10F
STEAMBOAT      FAIR      64  41  42 NW9G16    30.07R
LARAMIE        MOSUNNY   71  32  23 S16G25    30.05S
CASPER         LGT RAIN  63  46  54 S9        29.94R
$$

...OBSERVATIONS ACROSS THE NORTHERN PLAINS...

CITY           SKY/WX    TMP DP  RH WIND       PRES   REMARKS
BISMARCK       PTSUNNY   79  65  62 E10       29.87F
FARGO          FAIR      77  62  59 S17       29.97F
PIERRE         PTSUNNY   82  67  60 W8        29.85F
SIOUX FALLS    CLOUDY    85  63  47 S18G30    29.95F
$$

...OBSERVATIONS ACROSS THE CENTRAL AND SOUTHERN PLAINS...

CITY           SKY/WX    TMP DP  RH WIND       PRES   REMARKS
OMAHA          MOSUNNY   92  61  35 S16G31    29.98F HX  92
GRAND ISLAND   MOSUNNY   88  62  41 S18G35    29.94F
KANSAS CITY    PTSUNNY   88  64  44 S9G18     30.04F
WICHITA        MOSUNNY   89  64  43 SE20      30.01R HX  90
DODGE CITY     MOSUNNY   83  58  42 S16       29.97F
OKLAHOMA CITY  PTSUNNY   86  65  49 S10       30.01F
DALLAS         MOSUNNY   90  65  43 S13       30.00F HX  92
AMARILLO       MOSUNNY   85  51  31 S20       30.05F
$$




USA.gov is the U.S. government's official web portal to all federal, state and local government web resources and services.